#timestamp,LO_Frequency,Hit,StdDev 
1522324815.1,286046996.9,N
1522324816.0,286046996.9,N
1522324835.8,286046996.7,N
1522324855.6,286046999.1,N
1522324875.5,286047001.2,N
1522324895.3,286046998.6,N
1522324915.2,286046998.2,N
1522324935.9,286047002.6,N
1522324955.7,286047000.4,N
1522324975.6,286046998.7,N
1522324995.4,286046999.5,N
1522325015.2,286046997.2,N
1522325035.1,286046995.3,N
1522325036.0,286046995.3,N
1522325055.8,286046997.5,N
1522325075.7,286046996.6,N
1522325095.5,286046997.3,N
1522325115.3,286046997.5,N
1522325135.2,286046996.9,N
1522325155.0,286047000.2,N
1522325155.9,286047000.2,N
1522325175.8,286047002.7,N
1522325195.6,286047002.3,N
1522325215.4,286046999.8,N
1522325235.3,286047001.2,N
1522325255.1,286047002.8,N
1522325275.9,286047001.2,N
1522325295.7,286047000.9,N
1522325315.5,286047000.7,N
1522325335.4,286046996.9,N
1522325355.2,286046998.8,N
1522325375.0,286046999.0,N
1522325376.0,286046999.0,N
1522325395.8,286046997.2,N
1522325415.6,286046997.8,N
1522325435.5,286046994.9,N
1522325455.3,286046996.8,N
1522325475.1,286046997.3,N
1522325495.9,286046996.5,N
1522325515.7,286046998.0,N
1522325535.6,286046997.7,N
1522325555.4,286046997.8,N
1522325575.2,286046997.8,N
1522325595.1,286046999.5,N
1522325596.0,286046999.5,N
1522325615.8,286047000.8,N
1522325635.6,286047002.8,N
1522325655.5,286047002.8,N
1522325675.3,286046999.9,N
1522325695.2,286046999.6,N
1522325715.9,286046996.8,N
1522325735.7,286047001.2,N
1522325755.6,286046999.1,N
1522325775.4,286046996.7,N
1522325795.2,286046998.4,N
1522325815.1,286046999.3,N
1522325816.0,286046999.3,N
1522325835.8,286046999.5,N
1522325855.7,286046999.2,N
1522325875.5,286046998.9,N
1522325895.3,286047002.2,N
1522325915.2,286047002.0,N
1522325935.0,286047001.7,N
1522325935.9,286047001.7,N
1522325955.7,286047002.8,N
1522325975.6,286047000.5,N
1522325995.4,286047002.5,N
1522326015.3,286047000.5,N
1522326035.1,286047000.1,N
1522326036.0,286047000.1,N
1522326055.8,286046998.3,N
1522326075.7,286046996.7,N
1522326095.5,286046998.8,N
1522326115.3,286046998.3,N
1522326135.2,286046998.9,N
1522326155.0,286046998.8,N
1522326155.9,286046998.8,N
1522326175.8,286046999.4,N
1522326195.6,286046996.7,N
1522326215.4,286046996.7,N
1522326235.3,286046997.8,N
1522326255.1,286046997.8,N
1522326275.9,286046997.6,N
1522326295.7,286046999.3,N
1522326315.5,286046999.0,N
1522326335.4,286046999.0,N
1522326355.2,286046999.3,N
1522326375.0,286046998.3,N
1522326375.9,286046998.3,N
1522326395.8,286046998.5,N
1522326415.6,286046998.9,N
1522326435.5,286046996.5,N
1522326455.3,286046998.4,N
1522326475.1,286046998.6,N
1522326495.9,286046999.3,N
1522326515.7,286046999.5,N
1522326535.5,286046999.6,N
1522326555.4,286046997.9,N
1522326575.2,286046999.5,N
1522326595.1,286046999.5,N
1522326596.0,286046999.5,N
1522326615.8,286046999.3,N
1522326635.6,286047002.7,Y
1522326655.5,286047002.8,P
1522326675.3,286046998.4,N
1522326695.2,286046998.4,N
1522326715.9,286047001.0,N
1522326735.7,286046998.8,N
1522326755.6,286046998.9,N
1522326775.4,286046998.2,N
1522326795.2,286046998.5,N
1522326815.1,286047000.8,N
1522326816.0,286047000.8,N
1522326835.8,286046998.7,N
1522326855.7,286046996.9,N
1522326875.5,286046999.6,N
1522326895.3,286046999.1,N
1522326915.2,286046998.9,N
1522326935.0,286046998.9,N
1522326935.9,286046998.9,N
1522326955.8,286046998.1,N
1522326975.6,286046999.2,N
1522326995.4,286046998.7,N
1522327015.3,286046999.1,N
1522327035.1,286047001.1,N
1522327055.8,286046999.4,N
1522327075.7,286047000.9,N
1522327095.5,286047000.7,N
1522327115.4,286047002.4,N
1522327135.2,286047002.6,N
1522327155.0,286046999.9,N
1522327155.9,286046999.9,N
1522327175.8,286046999.3,N
1522327195.6,286047000.5,N
1522327215.4,286047000.6,N
1522327235.3,286046999.9,N
1522327255.1,286047002.5,N
1522327275.9,286047002.3,N
1522327295.7,286047002.1,N
1522327315.5,286047000.9,N
1522327335.4,286047001.2,N
1522327355.2,286046999.9,N
1522327375.1,286047000.0,N
1522327376.0,286047000.0,N
1522327395.8,286047000.2,N
1522327415.6,286047002.4,N
1522327435.5,286047002.7,N
1522327455.3,286047002.0,N
1522327475.1,286047001.7,N
1522327495.9,286047002.8,N
1522327515.7,286047001.0,N
1522327535.6,286047000.6,N
1522327555.4,286047002.7,N
1522327575.2,286047000.0,N
1522327595.1,286047000.4,N
1522327596.0,286047000.4,N
1522327615.8,286047001.0,N
1522327635.6,286047000.4,N
1522327655.5,286047000.5,N
1522327675.3,286047002.8,N
1522327695.2,286047001.6,N
1522327715.9,286047004.0,Y
1522327735.7,286047002.5,P
1522327755.6,286047001.5,N
1522327775.4,286047002.0,P
1522327795.2,286047002.8,Y
1522327815.1,286046998.6,P
1522327816.0,286046998.6,N
1522327835.8,286046999.9,N
1522327855.7,286047002.3,N
1522327875.5,286047001.7,N
1522327895.3,286047000.2,N
1522327915.2,286047000.2,N
1522327935.0,286047001.0,N
1522327935.9,286047001.0,N
1522327955.8,286046999.1,N
1522327975.6,286047000.7,N
1522327995.4,286046998.2,N
1522328015.3,286046999.5,N
1522328035.1,286046998.6,N
1522328055.8,286047002.7,N
1522328075.7,286047000.6,N
1522328095.5,286046996.7,N
1522328115.4,286046997.0,N
1522328135.2,286046999.2,N
1522328155.0,286046996.9,N
1522328155.9,286046996.9,N
1522328175.8,286046997.9,N
1522328195.6,286046995.1,N
1522328215.4,286046995.1,N
1522328235.3,286046997.9,N
1522328255.1,286046996.7,N
1522328275.9,286046997.0,N
1522328295.7,286046997.0,N
1522328315.5,286046999.0,N
1522328335.4,286047000.7,N
1522328355.2,286046996.8,N
1522328375.0,286046998.6,N
1522328376.0,286046998.6,N
1522328395.8,286047001.0,N
